Weather History for MMMZ - October, 2013

Change the Weather History Date:

Sunday, October 6, 2013

  Actual Average Record
Temperature  
Mean Temperature 80 °F -  
Max Temperature 90 °F - - ()
Min Temperature 71 °F - - ()
Cooling Degree Days 16    
Growing Degree Days 30 (Base 50)    
Moisture  
Dew Point 72 °F    
Average Humidity 75    
Maximum Humidity 94    
Minimum Humidity 51    
Precipitation  
Precipitation 0.00 in - - ()
Sea Level Pressure  
Sea Level Pressure 29.84 in    
Wind  
Wind Speed 5 mph ()    
Max Wind Speed 12 mph    
Max Gust Speed -    
Visibility 11.8 miles    
Events      
T = Trace of Precipitation, MM = Missing Value Source: Averaged Metar Reports

Daily Weather History Graph

Daily Weather History Graph

Search for Another Location

Airport or City:

Trip Planner

Search our weather history database for the weather conditions in past years. The results will help you decide how hot, cold, wet, or windy it might be!

Date:

Astronomy

Oct. 06, 2013 Rise Set
Actual Time 6:58 AM MDT 6:47 PM MDT
Civil Twilight 6:36 AM MDT 7:09 PM MDT
Nautical Twilight 6:09 AM MDT 7:35 PM MDT
Astronomical Twilight 5:43 AM MDT 8:01 PM MDT
Moon 8:30 AM MDT (10/6) 8:06 PM MDT (10/6)
Length of Visible Light 12h 33m
Length of Day
11h 48m
Waxing Crescent, 4% of the Moon is Illuminated
Oct 6
Waxing Crescent
Oct 11
First Quarter
Oct 18
Full
Oct 26
Last Quarter
Nov 3
New

Hourly Weather History & Observations

Time (MDT) Temp. Heat Index Dew Point Humidity Pressure Visibility Wind Dir Wind Speed Gust Speed Precip Events Conditions
12:41 AM 75.2 °F - 69.8 °F 83% 29.85 in 10.0 mi WNW 6.9 mph - N/A   Scattered Clouds
1:40 AM 73.4 °F - 69.8 °F 88% 29.84 in 10.0 mi NW 8.1 mph - N/A   Mostly Cloudy
2:40 AM 73.4 °F - 69.8 °F 88% 29.83 in 10.0 mi Calm Calm - N/A   Mostly Cloudy
3:00 AM 81 °F - 72 °F 68% 29.85 in - NW 4.5 mph - -  
3:40 AM 73.4 °F - 69.8 °F 88% 29.84 in 10.0 mi North 8.1 mph - N/A   Mostly Cloudy
4:46 AM 73.4 °F - 69.8 °F 88% 29.82 in 10.0 mi North 6.9 mph - N/A   Mostly Cloudy
5:49 AM 71.6 °F - 69.8 °F 94% 29.82 in 10.0 mi North 6.9 mph - N/A   Mostly Cloudy
6:44 AM 71.6 °F - 69.8 °F 94% 29.82 in 10.0 mi Calm Calm - N/A   Scattered Clouds
7:46 AM 75.2 °F - 69.8 °F 83% 29.84 in 10.0 mi Calm Calm - N/A   Partly Cloudy
8:44 AM 80.6 °F 84.6 °F 71.6 °F 74% 29.84 in 12.0 mi NNE 8.1 mph - N/A   Clear
9:50 AM 80.6 °F 84.6 °F 71.6 °F 74% 29.86 in 12.0 mi East 5.8 mph - N/A   Clear
10:45 AM 82.4 °F 87.2 °F 71.6 °F 70% 29.85 in 14.0 mi Calm Calm - N/A   Clear
11:43 AM 84.2 °F 89.6 °F 71.6 °F 66% 29.86 in 15.0 mi SE 5.8 mph - N/A   Clear
12:00 PM 90 °F - 74 °F 51% 29.86 in - SW 4.5 mph - -  
12:41 PM 87.8 °F 95.6 °F 73.4 °F 62% 29.84 in 15.0 mi SSW 8.1 mph - N/A   Partly Cloudy
1:43 PM 87.8 °F 95.6 °F 73.4 °F 62% 29.81 in 15.0 mi SW 8.1 mph - N/A   Partly Cloudy
2:40 PM 87.8 °F 95.6 °F 73.4 °F 62% 29.80 in 15.0 mi SW 10.4 mph - N/A   Clear
3:00 PM 90 °F - 77 °F 57% 29.82 in - WSW 6.7 mph - -  
3:42 PM 86.0 °F 93.4 °F 73.4 °F 66% 29.79 in 15.0 mi SW 10.4 mph - N/A   Clear
4:43 PM 84.2 °F 90.9 °F 73.4 °F 70% 29.78 in 15.0 mi WSW 11.5 mph - N/A   Clear
5:42 PM 84.2 °F 90.9 °F 73.4 °F 70% 29.78 in 12.0 mi West 10.4 mph - N/A   Clear
6:40 PM 82.4 °F 87.2 °F 71.6 °F 70% 29.81 in 12.0 mi WNW 8.1 mph - N/A   Clear
7:45 PM 78.8 °F - 71.6 °F 78% 29.84 in 10.0 mi NW 6.9 mph - N/A   Clear
8:50 PM 78.8 °F - 71.6 °F 78% 29.85 in 10.0 mi North 6.9 mph - N/A   Clear
9:00 PM 85 °F - 76 °F 67% 29.87 in - WNW 6.7 mph - -  
9:46 PM 77.0 °F - 71.6 °F 83% 29.86 in 10.0 mi North 8.1 mph - N/A   Clear
10:45 PM 75.2 °F - 71.6 °F 89% 29.87 in 10.0 mi NW 5.8 mph - N/A   Clear
11:42 PM 75.2 °F - 71.6 °F 89% 29.88 in 10.0 mi NNW 6.9 mph - N/A   Clear